| time (UTC) | temp C | wind direction | speed KPH | gust KPH | rain 1hr cm | rain 24hr cm | rain mn cm | humidity % | barometer mb |
| 20260505041019 | 15 | 235 | 6.4 | 12.9 | 0.00 | 0.00 | 0.00 | 69 | 1010.3 |
| 20260505040039 | 15 | 225 | 4.8 | 9.7 | 0.00 | 0.00 | 0.00 | 68 | 1010.3 |
| 20260505035018 | 15 | 232 | 4.8 | 8.0 | 0.00 | 0.00 | 0.00 | 67 | 1010.3 |
| 20260505034017 | 16 | 225 | 3.2 | 6.4 | 0.00 | 0.00 | 0.00 | 65 | 1010.4 |
| 20260505033017 | 16 | 236 | 3.2 | 8.0 | 0.00 | 0.00 | 0.00 | 63 | 1010.5 |
| 20260505032016 | 16 | 234 | 1.6 | 4.8 | 0.00 | 0.00 | 0.00 | 63 | 1010.6 |
| 20260505031016 | 16 | 235 | 1.6 | 6.4 | 0.00 | 0.00 | 0.00 | 62 | 1010.6 |
| 20260505030016 | 16 | 232 | 3.2 | 8.0 | 0.00 | 0.00 | 0.00 | 61 | 1010.8 |
| 20260505025016 | 16 | 233 | 4.8 | 8.0 | 0.00 | 0.00 | 0.00 | 60 | 1010.9 |
| 20260505024016 | 16 | 229 | 4.8 | 9.7 | 0.00 | 0.00 | 0.00 | 60 | 1011.1 |
| 20260505023016 | 16 | 234 | 4.8 | 9.7 | 0.00 | 0.00 | 0.00 | 59 | 1011.1 |
| 20260505022058 | 16 | 227 | 4.8 | 8.0 | 0.00 | 0.00 | 0.00 | 60 | 1011.2 |
| 20260505021016 | 16 | 230 | 3.2 | 4.8 | 0.00 | 0.00 | 0.00 | 60 | 1011.3 |
| 20260505020017 | 16 | 231 | 1.6 | 4.8 | 0.00 | 0.00 | 0.00 | 61 | 1011.4 |
| 20260505015017 | 16 | 239 | 1.6 | 4.8 | 0.00 | 0.00 | 0.00 | 61 | 1011.4 |
| 20260505014017 | 16 | 233 | 1.6 | 4.8 | 0.00 | 0.00 | 0.00 | 61 | 1011.6 |
| 20260505013018 | 16 | 225 | 3.2 | 4.8 | 0.00 | 0.00 | 0.00 | 61 | 1011.6 |
| 20260505012016 | 16 | 234 | 1.6 | 3.2 | 0.00 | 0.00 | 0.00 | 61 | 1011.8 |
| 20260505011017 | 16 | 241 | 1.6 | 3.2 | 0.00 | 0.00 | 0.00 | 61 | 1011.9 |
| 20260505010016 | 16 | 241 | 0.0 | 4.8 | 0.00 | 0.00 | 0.00 | 60 | 1012.1 |
| 20260505005036 | 16 | 237 | 3.2 | 4.8 | 0.00 | 0.00 | 0.00 | 60 | 1012.3 |
| 20260505004016 | 16 | 233 | 1.6 | 4.8 | 0.00 | 0.00 | 0.00 | 59 | 1012.4 |
| 20260505003016 | 16 | 238 | 3.2 | 6.4 | 0.00 | 0.00 | 0.00 | 59 | 1012.3 |
| 20260505002016 | 16 | 237 | 1.6 | 6.4 | 0.00 | 0.00 | 0.00 | 58 | 1012.3 |
| 20260505001016 | 16 | 233 | 3.2 | 9.7 | 0.00 | 0.00 | 0.00 | 58 | 1012.4 |
| 20260505000039 | 17 | 241 | 4.8 | 9.7 | 0.00 | 0.00 | 0.00 | 57 | 1012.5 |
| 20260504235016 | 17 | 229 | 4.8 | 9.7 | 0.00 | 0.00 | 0.00 | 55 | 1012.5 |
| 20260504234016 | 17 | 226 | 3.2 | 8.0 | 0.00 | 0.00 | 0.00 | 54 | 1012.6 |
| 20260504233016 | 17 | 231 | 3.2 | 9.7 | 0.00 | 0.00 | 0.00 | 55 | 1012.7 |
| 20260504232016 | 17 | 226 | 4.8 | 9.7 | 0.00 | 0.00 | 0.00 | 55 | 1012.8 |
| 20260504231039 | 17 | 227 | 4.8 | 14.5 | 0.00 | 0.00 | 0.00 | 55 | 1012.8 |
| 20260504230016 | 17 | 232 | 4.8 | 11.3 | 0.00 | 0.00 | 0.00 | 55 | 1012.9 |
| 20260504225036 | 17 | 230 | 4.8 | 9.7 | 0.00 | 0.00 | 0.00 | 56 | 1013.0 |
| 20260504224016 | 17 | 227 | 3.2 | 12.9 | 0.00 | 0.00 | 0.00 | 55 | 1013.1 |
| 20260504223016 | 17 | 227 | 6.4 | 11.3 | 0.00 | 0.00 | 0.00 | 55 | 1013.0 |
| 20260504222016 | 17 | 228 | 4.8 | 11.3 | 0.00 | 0.00 | 0.00 | 55 | 1013.0 |
| 20260504221016 | 17 | 223 | 6.4 | 12.9 | 0.00 | 0.00 | 0.00 | 55 | 1013.1 |
| 20260504220018 | 17 | 221 | 8.0 | 12.9 | 0.00 | 0.00 | 0.00 | 55 | 1013.2 |
| 20260504215016 | 17 | 222 | 6.4 | 12.9 | 0.00 | 0.00 | 0.00 | 56 | 1013.1 |
| 20260504214016 | 18 | 229 | 6.4 | 12.9 | 0.00 | 0.00 | 0.00 | 57 | 1013.2 |
| 20260504213019 | 18 | 223 | 6.4 | 14.5 | 0.00 | 0.00 | 0.00 | 57 | 1013.1 |
| 20260504212037 | 18 | 227 | 6.4 | 12.9 | 0.00 | 0.00 | 0.00 | 56 | 1013.2 |
| 20260504211018 | 18 | 225 | 6.4 | 14.5 | 0.00 | 0.00 | 0.00 | 56 | 1013.3 |
| 20260504210018 | 18 | 230 | 6.4 | 11.3 | 0.00 | 0.00 | 0.00 | 56 | 1013.2 |
| 20260504205018 | 18 | 227 | 6.4 | 14.5 | 0.00 | 0.00 | 0.00 | 55 | 1013.2 |
| 20260504204018 | 18 | 224 | 6.4 | 12.9 | 0.00 | 0.00 | 0.00 | 54 | 1013.2 |
| 20260504203019 | 18 | 224 | 6.4 | 12.9 | 0.00 | 0.00 | 0.00 | 54 | 1013.2 |
| 20260504202018 | 18 | 225 | 6.4 | 12.9 | 0.00 | 0.00 | 0.00 | 53 | 1013.1 |
| 20260504201018 | 18 | 226 | 8.0 | 12.9 | 0.00 | 0.00 | 0.00 | 54 | 1013.1 |
| 20260504200018 | 18 | 227 | 9.7 | 16.1 | 0.00 | 0.00 | 0.00 | 54 | 1013.0 |
| 20260504195020 | 18 | 221 | 9.7 | 14.5 | 0.00 | 0.00 | 0.00 | 54 | 1012.9 |
| 20260504194018 | 18 | 221 | 8.0 | 12.9 | 0.00 | 0.00 | 0.00 | 54 | 1012.8 |
| 20260504193018 | 18 | 224 | 8.0 | 12.9 | 0.00 | 0.00 | 0.00 | 53 | 1012.7 |
| 20260504192039 | 18 | 221 | 6.4 | 9.7 | 0.00 | 0.00 | 0.00 | 52 | 1012.7 |
| 20260504191018 | 19 | 220 | 4.8 | 11.3 | 0.00 | 0.00 | 0.00 | 51 | 1012.7 |
| 20260504190023 | 19 | 219 | 4.8 | 9.7 | 0.00 | 0.00 | 0.00 | 50 | 1012.6 |
| 20260504185018 | 19 | 226 | 4.8 | 8.0 | 0.00 | 0.00 | 0.00 | 49 | 1012.6 |
| 20260504184018 | 19 | 222 | 6.4 | 9.7 | 0.00 | 0.00 | 0.00 | 48 | 1012.5 |
| 20260504183018 | 20 | 221 | 4.8 | 8.0 | 0.00 | 0.00 | 0.00 | 48 | 1012.6 |
| 20260504182018 | 20 | 225 | 3.2 | 4.8 | 0.00 | 0.00 | 0.00 | 47 | 1012.6 |
| 20260504181018 | 20 | 222 | 3.2 | 6.4 | 0.00 | 0.00 | 0.00 | 45 | 1012.5 |
| 20260504180018 | 21 | 219 | 1.6 | 8.0 | 0.00 | 0.00 | 0.00 | 44 | 1012.5 |
| 20260504175018 | 21 | 219 | 4.8 | 9.7 | 0.00 | 0.00 | 0.00 | 42 | 1012.5 |
| 20260504174020 | 22 | 224 | 6.4 | 11.3 | 0.00 | 0.00 | 0.00 | 41 | 1012.4 |
| 20260504173019 | 22 | 226 | 3.2 | 9.7 | 0.00 | 0.00 | 0.00 | 41 | 1012.4 |
| 20260504172017 | 22 | 222 | 6.4 | 8.0 | 0.00 | 0.00 | 0.00 | 40 | 1012.4 |
| 20260504171018 | 22 | 222 | 6.4 | 9.7 | 0.00 | 0.00 | 0.00 | 38 | 1012.5 |
| 20260504151038 | 23 | 226 | 4.8 | 8.0 | 0.00 | 0.00 | 0.00 | 35 | 1012.9 |
| 20260504141017 | 25 | 170 | 3.2 | 14.5 | 0.00 | 0.00 | 0.00 | 29 | 1013.1 |
| 20260504081017 | 20 | 234 | 3.2 | 8.0 | 0.00 | 0.00 | 0.00 | 45 | 1015.2 |
| 20260504050017 | 11 | 239 | 0.0 | 3.2 | 0.00 | 0.00 | 0.00 | 68 | 1014.3 |